Starlink 32329

operational
NORAD ID: 62736 Int'l Des: 2025-014 Owner: SPXS Country: US Constellation: starlink
LEOCIRCULAR

Über Starlink 32329

Beschreibung wird geladen...

Live-Position

3D-Globus wird geladen...

Nächste Überflüge

Höhenverlauf

Altitude vs Time

uPlot chart will show altitude changes over time

Zweizeiliger Elementsatz

1 62736U 25014B 25350.48802728 .00011683 00000-0 43312-3 0 9995
2 62736 43.0016 264.1960 0001201 279.0476 81.0240 15.27600497 50536
Epoch: 16. Dez. 2025 • Age: 22 hours

Aktueller Status

Höhe 485.8 km
Geschwindigkeit 7.63 km/s
Subsatellitenpunkt 38.97°N, 82.7°E
Startdatum 21. Jan. 2025
Alter 0.9 years
Typ internet

Technische Details

Klassifizierung Payload
Masse 730.00 kg
Trockenmasse 700.00 kg
Gesamtmasse 730.00 kg
Länge 0.30 m
Durchmesser 4.10 m
Spannweite 29.00 m
Form Box + pan
Hersteller SPXS
Bus-Typ Starlink V2M
Phasenstatus In Orbit
Besitzer/Staat SPXS/US

Große Konstellationen

Loading constellations...